Location: Ladrillo (historical)
(32.8195°N, 117.2231°W)
Time: 06:19:53
(UTC+00:00)

Tiangong - Pass Details

Date: 27 September 2021
Orbit: 382 x 385 km, 41.5° (Epoch: 16 October)

Event Time Altitude Azimuth Distance (km) Brightness Sun altitude
Exits shadow 12:13:43 51° 345° (NNW) 488 1.4 -19.0°
Drops below altitude 10° 12:16:41 10° 54° (NE) 1,395 4.8 -18.4°
Sets 12:18:47 0° 59° (ENE) 2,248 6.2 -18.0°
